Tracking 27079 objects as of 23-Mar-2023
HD Live streaming from Space Station
objects crossing your sky now

SL-12 R/B(2)

Track SL-12 R/B(2) now!


NORAD ID: 27620
Int'l Code: 2002-060D
Perigee: 19,102.6 km
Apogee: 19,116.3 km
Inclination: 65.9 °
Period: 674.6 minutes
Semi major axis: 25480 km
RCS: 1.5848 m2 (large)
Launch date: December 25, 2002
Source: Commonwealth of Independent States (former USSR) (CIS)
Launch site: TYURATAM MISSILE AND SPACE COMPLEX (TTMTR)

Note: This is a ROCKET BODY
Your satellite tracking list
Your tracking list is empty




NASA's NSSDC Master Catalog

Two Line Element Set (TLE):
1 27620U 02060D   23081.18130774 -.00000079  00000-0  00000-0 0  9997
2 27620  65.9001 354.5055 0002690 249.0156  35.7741  2.13448007157763
Source of the keplerian elements: AFSPC